Time,TemperatureF,DewpointF,PressureIn,WindDirection,WindDirectionDegrees,WindSpeedMPH,WindSpeedGustMPH,Humidity,HourlyPrecipIn,Conditions,Clouds,dailyrainin,SoftwareType,DateUTC
2013-01-11 00:03:00,23.6,17.7,29.98,East,90,1.8,3.1,78,0.00,,,0.00,WUHU216HW,2013-01-11 08:03:00,
2013-01-11 00:08:00,23.4,17.6,29.98,North,0,1.8,3.1,78,0.00,,,0.00,WUHU216HW,2013-01-11 08:08:00,
2013-01-11 00:15:00,22.5,17.0,29.98,ENE,68,1.3,2.5,79,0.00,,,0.00,WUHU216HW,2013-01-11 08:15:00,
2013-01-11 00:28:00,21.6,16.4,29.98,ENE,68,2.0,2.5,80,0.00,,,0.00,WUHU216HW,2013-01-11 08:28:00,
2013-01-11 00:34:00,22.0,17.6,29.98,ENE,68,4.3,4.3,83,0.00,,,0.00,WUHU216HW,2013-01-11 08:34:00,
2013-01-11 00:39:00,22.3,17.4,29.98,North,0,2.7,4.5,81,0.00,,,0.00,WUHU216HW,2013-01-11 08:39:00,
2013-01-11 00:44:00,22.7,17.5,29.98,North,0,0.4,4.5,80,0.00,,,0.00,WUHU216HW,2013-01-11 08:44:00,
2013-01-11 00:49:00,22.9,17.4,29.98,NE,45,2.9,2.9,79,0.00,,,0.00,WUHU216HW,2013-01-11 08:49:00,
2013-01-11 00:54:00,22.7,17.2,29.98,NE,45,0.0,2.9,79,0.00,,,0.00,WUHU216HW,2013-01-11 08:54:00,
2013-01-11 00:59:00,22.3,16.8,29.98,NE,45,0.0,2.9,79,0.00,,,0.00,WUHU216HW,2013-01-11 08:59:00,
2013-01-11 01:04:00,22.0,16.5,29.98,NE,45,0.0,1.1,79,0.00,,,0.00,WUHU216HW,2013-01-11 09:04:00,
2013-01-11 01:09:00,21.6,16.7,29.98,NE,45,0.9,1.1,81,0.00,,,0.00,WUHU216HW,2013-01-11 09:09:00,
2013-01-11 01:14:00,21.2,16.3,29.98,NE,45,0.4,1.1,81,0.00,,,0.00,WUHU216HW,2013-01-11 09:14:00,
2013-01-11 01:19:00,21.2,16.3,29.99,NE,45,0.0,1.1,81,0.00,,,0.00,WUHU216HW,2013-01-11 09:19:00,
2013-01-11 01:24:00,21.1,16.1,29.99,WNW,293,0.4,2.0,81,0.00,,,0.00,WUHU216HW,2013-01-11 09:24:00,
2013-01-11 01:29:00,21.1,16.1,29.99,North,0,0.0,3.6,81,0.00,,,0.00,WUHU216HW,2013-01-11 09:29:00,
2013-01-11 01:34:00,21.1,16.1,29.99,North,0,0.4,3.6,81,0.00,,,0.00,WUHU216HW,2013-01-11 09:34:00,
2013-01-11 01:39:00,21.1,16.1,29.99,North,0,0.0,0.4,81,0.00,,,0.00,WUHU216HW,2013-01-11 09:39:00,
2013-01-11 01:44:00,20.9,15.9,29.99,North,0,0.0,0.4,81,0.00,,,0.00,WUHU216HW,2013-01-11 09:44:00,
2013-01-11 01:49:00,20.9,16.2,29.99,North,0,0.7,1.1,82,0.00,,,0.00,WUHU216HW,2013-01-11 09:49:00,
2013-01-11 01:54:00,20.9,16.2,29.99,North,0,0.7,1.1,82,0.00,,,0.00,WUHU216HW,2013-01-11 09:54:00,
2013-01-11 01:59:00,21.1,16.4,29.99,North,0,1.1,1.1,82,0.00,,,0.00,WUHU216HW,2013-01-11 09:59:00,
2013-01-11 02:04:00,21.1,16.4,30.00,NNE,23,0.7,1.1,82,0.00,,,0.00,WUHU216HW,2013-01-11 10:04:00,
2013-01-11 02:09:00,21.1,16.4,30.00,NNE,23,0.9,1.1,82,0.00,,,0.00,WUHU216HW,2013-01-11 10:09:00,
2013-01-11 02:14:00,21.1,16.4,30.00,East,90,0.7,1.8,82,0.00,,,0.00,WUHU216HW,2013-01-11 10:14:00,
2013-01-11 02:19:00,21.1,16.4,30.00,East,90,1.6,1.8,82,0.00,,,0.00,WUHU216HW,2013-01-11 10:19:00,
2013-01-11 02:24:00,21.2,16.6,30.00,East,90,0.4,1.8,82,0.00,,,0.00,WUHU216HW,2013-01-11 10:24:00,
2013-01-11 02:29:00,21.1,16.4,30.00,East,90,0.9,1.6,82,0.00,,,0.00,WUHU216HW,2013-01-11 10:29:00,
2013-01-11 02:34:00,21.2,16.6,30.00,East,90,0.4,1.1,82,0.00,,,0.00,WUHU216HW,2013-01-11 10:34:00,
2013-01-11 02:39:00,21.4,16.7,30.00,East,90,1.1,1.1,82,0.00,,,0.00,WUHU216HW,2013-01-11 10:39:00,
2013-01-11 02:44:00,21.4,16.7,30.01,East,90,0.4,1.1,82,0.00,,,0.00,WUHU216HW,2013-01-11 10:44:00,
2013-01-11 02:49:00,21.4,16.7,30.01,East,90,0.2,1.1,82,0.00,,,0.00,WUHU216HW,2013-01-11 10:49:00,
2013-01-11 02:54:00,21.8,17.1,30.01,NNE,23,0.4,1.8,82,0.00,,,0.00,WUHU216HW,2013-01-11 10:54:00,
2013-01-11 02:59:00,22.0,17.0,30.01,NNE,23,0.0,1.8,81,0.00,,,0.00,WUHU216HW,2013-01-11 10:59:00,
2013-01-11 03:04:00,22.0,17.0,30.01,NNE,23,0.0,0.4,81,0.00,,,0.00,WUHU216HW,2013-01-11 11:04:00,
2013-01-11 03:09:00,22.3,17.4,30.01,NNE,23,0.0,0.4,81,0.00,,,0.00,WUHU216HW,2013-01-11 11:09:00,
2013-01-11 03:14:00,22.7,17.5,30.01,NNE,23,0.0,0.4,80,0.00,,,0.00,WUHU216HW,2013-01-11 11:14:00,
2013-01-11 03:19:00,22.7,17.2,30.01,NNE,23,0.0,0.4,79,0.00,,,0.00,WUHU216HW,2013-01-11 11:19:00,
2013-01-11 03:26:00,22.5,17.0,30.01,NNE,23,0.4,0.4,79,0.00,,,0.00,WUHU216HW,2013-01-11 11:26:00,
2013-01-11 03:31:00,22.5,17.0,30.01,NNE,23,1.1,1.3,79,0.00,,,0.00,WUHU216HW,2013-01-11 11:31:00,
2013-01-11 03:36:00,22.3,16.5,30.01,NNE,23,0.0,1.3,78,0.00,,,0.00,WUHU216HW,2013-01-11 11:36:00,
2013-01-11 03:41:00,22.3,16.5,30.01,NNE,23,0.4,1.1,78,0.00,,,0.00,WUHU216HW,2013-01-11 11:41:00,
2013-01-11 03:46:00,22.1,16.3,30.01,NNE,23,0.0,1.1,78,0.00,,,0.00,WUHU216HW,2013-01-11 11:46:00,
2013-01-11 03:51:00,22.0,16.1,30.01,NNE,23,0.0,0.7,78,0.00,,,0.00,WUHU216HW,2013-01-11 11:51:00,
2013-01-11 03:56:00,22.0,16.1,30.01,NNE,23,0.4,0.4,78,0.00,,,0.00,WUHU216HW,2013-01-11 11:56:00,
2013-01-11 04:01:00,22.0,16.5,30.01,NNE,23,0.0,0.4,79,0.00,,,0.00,WUHU216HW,2013-01-11 12:01:00,
2013-01-11 04:06:00,22.0,16.1,30.01,NNE,23,0.0,0.4,78,0.00,,,0.00,WUHU216HW,2013-01-11 12:06:00,
2013-01-11 04:11:00,22.3,16.5,30.01,NNE,23,0.0,0.0,78,0.00,,,0.00,WUHU216HW,2013-01-11 12:11:00,
2013-01-11 04:16:00,22.3,16.2,30.01,NNE,23,0.0,0.0,77,0.00,,,0.00,WUHU216HW,2013-01-11 12:16:00,
2013-01-11 04:21:00,22.5,16.4,30.00,NNE,23,0.0,0.2,77,0.00,,,0.00,WUHU216HW,2013-01-11 12:21:00,
2013-01-11 04:26:00,22.5,16.4,30.00,NNE,23,0.0,0.2,77,0.00,,,0.00,WUHU216HW,2013-01-11 12:26:00,
2013-01-11 04:31:00,22.1,16.0,30.01,NNE,23,0.0,0.0,77,0.00,,,0.00,WUHU216HW,2013-01-11 12:31:00,
2013-01-11 04:36:00,22.1,16.0,30.01,NNE,23,0.0,0.0,77,0.00,,,0.00,WUHU216HW,2013-01-11 12:36:00,
2013-01-11 04:41:00,22.1,16.0,30.01,NNE,23,0.4,0.4,77,0.00,,,0.00,WUHU216HW,2013-01-11 12:41:00,
2013-01-11 04:46:00,22.0,15.9,30.01,NNE,23,0.2,0.9,77,0.00,,,0.00,WUHU216HW,2013-01-11 12:46:00,
2013-01-11 04:51:00,22.0,15.9,30.01,NNE,23,0.0,0.9,77,0.00,,,0.00,WUHU216HW,2013-01-11 12:51:00,
2013-01-11 04:56:00,21.6,15.5,30.01,NNE,23,0.7,0.7,77,0.00,,,0.00,WUHU216HW,2013-01-11 12:56:00,
2013-01-11 05:01:00,21.6,15.5,30.01,NNE,23,0.0,1.1,77,0.00,,,0.00,WUHU216HW,2013-01-11 13:01:00,
2013-01-11 05:06:00,21.2,14.8,30.01,ENE,68,1.8,1.8,76,0.00,,,0.00,WUHU216HW,2013-01-11 13:06:00,
2013-01-11 05:11:00,20.5,14.7,30.01,ENE,68,1.1,2.5,78,0.00,,,0.00,WUHU216HW,2013-01-11 13:11:00,
2013-01-11 05:16:00,20.5,14.7,30.01,East,90,1.1,2.5,78,0.00,,,0.00,WUHU216HW,2013-01-11 13:16:00,
2013-01-11 05:21:00,20.3,14.9,30.01,East,90,1.1,2.0,79,0.00,,,0.00,WUHU216HW,2013-01-11 13:21:00,
2013-01-11 05:26:00,20.7,15.5,30.01,East,90,1.6,1.6,80,0.00,,,0.00,WUHU216HW,2013-01-11 13:26:00,
2013-01-11 05:31:00,20.9,15.4,30.02,East,90,0.4,2.2,79,0.00,,,0.00,WUHU216HW,2013-01-11 13:31:00,
2013-01-11 05:36:00,21.1,15.2,30.01,NNE,23,1.1,2.2,78,0.00,,,0.00,WUHU216HW,2013-01-11 13:36:00,
2013-01-11 05:40:00,21.8,15.9,30.02,NNE,23,0.7,1.3,78,0.00,,,0.00,WUHU216HW,2013-01-11 13:40:00,
2013-01-11 05:45:00,22.0,15.9,30.02,NNE,23,1.1,1.3,77,0.00,,,0.00,WUHU216HW,2013-01-11 13:45:00,
2013-01-11 05:50:00,21.8,15.7,30.02,NNE,23,0.7,1.8,77,0.00,,,0.00,WUHU216HW,2013-01-11 13:50:00,
2013-01-11 05:55:00,21.6,15.5,30.02,NNE,23,0.4,1.8,77,0.00,,,0.00,WUHU216HW,2013-01-11 13:55:00,
2013-01-11 06:00:00,21.8,15.3,30.02,NNE,23,1.1,1.3,76,0.00,,,0.00,WUHU216HW,2013-01-11 14:00:00,
2013-01-11 06:05:00,21.8,15.3,30.03,NE,45,2.2,2.2,76,0.00,,,0.00,WUHU216HW,2013-01-11 14:05:00,
2013-01-11 06:10:00,21.8,15.3,30.03,East,90,2.2,4.7,76,0.00,,,0.00,WUHU216HW,2013-01-11 14:10:00,
2013-01-11 06:15:00,21.8,15.7,30.03,East,90,0.0,4.7,77,0.00,,,0.00,WUHU216HW,2013-01-11 14:15:00,
2013-01-11 06:20:00,21.4,15.3,30.03,East,90,1.1,2.5,77,0.00,,,0.00,WUHU216HW,2013-01-11 14:20:00,
2013-01-11 06:25:00,21.2,14.8,30.03,East,90,0.0,1.1,76,0.00,,,0.00,WUHU216HW,2013-01-11 14:25:00,
2013-01-11 06:30:00,20.5,14.4,30.03,East,90,0.0,1.1,77,0.00,,,0.00,WUHU216HW,2013-01-11 14:30:00,
2013-01-11 06:35:00,20.3,14.5,30.03,East,90,0.4,0.7,78,0.00,,,0.00,WUHU216HW,2013-01-11 14:35:00,
2013-01-11 06:40:00,20.2,14.9,30.03,East,90,1.1,1.1,80,0.00,,,0.00,WUHU216HW,2013-01-11 14:40:00,
2013-01-11 06:45:00,20.5,15.3,30.03,NE,45,1.1,2.2,80,0.00,,,0.00,WUHU216HW,2013-01-11 14:45:00,
2013-01-11 06:50:00,20.7,15.2,30.04,NE,45,0.7,2.2,79,0.00,,,0.00,WUHU216HW,2013-01-11 14:50:00,
2013-01-11 06:55:00,20.9,15.4,30.04,NNE,23,0.0,1.1,79,0.00,,,0.00,WUHU216HW,2013-01-11 14:55:00,
2013-01-11 07:00:00,20.3,15.1,30.04,NNE,23,0.4,1.1,80,0.00,,,0.00,WUHU216HW,2013-01-11 15:00:00,
2013-01-11 07:05:00,20.2,14.9,30.04,NNE,23,0.0,0.9,80,0.00,,,0.00,WUHU216HW,2013-01-11 15:05:00,
2013-01-11 07:10:00,20.0,15.0,30.04,NE,45,0.0,1.8,81,0.00,,,0.00,WUHU216HW,2013-01-11 15:10:00,
2013-01-11 07:15:00,20.0,15.0,30.04,NE,45,1.1,2.0,81,0.00,,,0.00,WUHU216HW,2013-01-11 15:15:00,
2013-01-11 07:20:00,19.8,14.9,30.05,NNW,338,0.4,2.0,81,0.00,,,0.00,WUHU216HW,2013-01-11 15:20:00,
2013-01-11 07:25:00,19.6,14.7,30.05,NNW,338,0.4,1.6,81,0.00,,,0.00,WUHU216HW,2013-01-11 15:25:00,
2013-01-11 07:30:00,19.4,14.8,30.06,NNE,23,1.8,1.8,82,0.00,,,0.00,WUHU216HW,2013-01-11 15:30:00,
2013-01-11 07:35:00,19.6,14.7,30.06,East,90,1.1,2.2,81,0.00,,,0.00,WUHU216HW,2013-01-11 15:35:00,
2013-01-11 07:40:00,19.6,14.9,30.06,East,90,0.2,2.2,82,0.00,,,0.00,WUHU216HW,2013-01-11 15:40:00,
2013-01-11 07:45:00,19.6,14.7,30.06,East,90,0.4,1.8,81,0.00,,,0.00,WUHU216HW,2013-01-11 15:45:00,
2013-01-11 07:50:00,19.4,14.8,30.06,NNE,23,0.7,1.1,82,0.00,,,0.00,WUHU216HW,2013-01-11 15:50:00,
2013-01-11 07:55:00,19.1,14.4,30.06,NNE,23,1.6,1.6,82,0.00,,,0.00,WUHU216HW,2013-01-11 15:55:00,
2013-01-11 08:00:00,19.1,14.4,30.06,NNE,23,0.0,1.6,82,0.00,,,0.00,WUHU216HW,2013-01-11 16:00:00,
2013-01-11 08:05:00,19.1,14.4,30.07,NNE,23,0.0,1.6,82,0.00,,,0.00,WUHU216HW,2013-01-11 16:05:00,
2013-01-11 08:10:00,19.1,14.7,30.07,NNE,23,1.1,1.1,83,0.00,,,0.00,WUHU216HW,2013-01-11 16:10:00,
2013-01-11 08:15:00,19.3,14.6,30.07,NNE,23,0.2,1.1,82,0.00,,,0.00,WUHU216HW,2013-01-11 16:15:00,
2013-01-11 08:20:00,19.4,14.8,30.08,NNE,23,0.0,0.7,82,0.00,,,0.00,WUHU216HW,2013-01-11 16:20:00,
2013-01-11 08:25:00,19.6,15.2,30.08,NNE,23,0.4,1.1,83,0.00,,,0.00,WUHU216HW,2013-01-11 16:25:00,
2013-01-11 08:30:00,20.0,15.6,30.08,NNE,23,0.0,1.1,83,0.00,,,0.00,WUHU216HW,2013-01-11 16:30:00,
2013-01-11 08:35:00,20.3,15.9,30.08,NNE,23,0.2,1.1,83,0.00,,,0.00,WUHU216HW,2013-01-11 16:35:00,
2013-01-11 08:40:00,20.5,15.8,30.08,NNE,23,1.1,1.1,82,0.00,,,0.00,WUHU216HW,2013-01-11 16:40:00,
2013-01-11 08:45:00,20.9,16.7,30.09,NNE,23,0.4,1.1,84,0.00,,,0.00,WUHU216HW,2013-01-11 16:45:00,
2013-01-11 08:50:00,21.2,16.8,30.09,NNE,23,0.0,1.1,83,0.00,,,0.00,WUHU216HW,2013-01-11 16:50:00,
2013-01-11 08:55:00,21.6,17.2,30.09,NNE,23,1.1,1.1,83,0.00,,,0.00,WUHU216HW,2013-01-11 16:55:00,
2013-01-11 09:00:00,21.8,17.6,30.09,NNE,23,0.0,1.1,84,0.00,,,0.00,WUHU216HW,2013-01-11 17:00:00,
2013-01-11 09:05:00,22.3,17.9,30.10,NNE,23,0.0,1.1,83,0.00,,,0.00,WUHU216HW,2013-01-11 17:05:00,
2013-01-11 09:10:00,22.5,18.1,30.10,NNE,23,0.0,0.2,83,0.00,,,0.00,WUHU216HW,2013-01-11 17:10:00,
2013-01-11 09:15:00,22.9,18.2,30.10,NNE,23,0.4,0.7,82,0.00,,,0.00,WUHU216HW,2013-01-11 17:15:00,
2013-01-11 09:20:00,23.0,18.4,30.10,NNE,23,0.0,0.9,82,0.00,,,0.00,WUHU216HW,2013-01-11 17:20:00,
2013-01-11 09:25:00,23.4,18.7,30.10,NNE,23,0.0,0.9,82,0.00,,,0.00,WUHU216HW,2013-01-11 17:25:00,
2013-01-11 09:30:00,23.8,18.5,30.11,NNE,23,0.0,0.4,80,0.00,,,0.00,WUHU216HW,2013-01-11 17:30:00,
2013-01-11 09:35:00,24.1,18.9,30.10,NNE,23,0.0,0.4,80,0.00,,,0.00,WUHU216HW,2013-01-11 17:35:00,
2013-01-11 09:40:00,24.5,19.3,30.11,NNE,23,1.1,1.1,80,0.00,,,0.00,WUHU216HW,2013-01-11 17:40:00,
2013-01-11 09:45:00,24.7,19.4,30.11,NNE,23,0.4,1.3,80,0.00,,,0.00,WUHU216HW,2013-01-11 17:45:00,
2013-01-11 09:50:00,24.8,19.6,30.11,NNE,23,0.9,1.6,80,0.00,,,0.00,WUHU216HW,2013-01-11 17:50:00,
2013-01-11 09:55:00,25.0,19.8,30.11,NNE,23,0.4,1.6,80,0.00,,,0.00,WUHU216HW,2013-01-11 17:55:00,
2013-01-11 10:00:00,25.4,20.3,30.11,NNE,23,0.9,0.9,81,0.00,,,0.00,WUHU216HW,2013-01-11 18:00:00,
2013-01-11 10:05:00,25.7,20.1,30.11,NNE,23,1.1,1.1,79,0.00,,,0.00,WUHU216HW,2013-01-11 18:05:00,
2013-01-11 10:10:00,26.3,18.5,30.11,East,90,0.9,2.5,72,0.00,,,0.00,WUHU216HW,2013-01-11 18:10:00,
2013-01-11 10:15:00,26.3,18.7,30.11,East,90,0.4,2.5,73,0.00,,,0.00,WUHU216HW,2013-01-11 18:15:00,
2013-01-11 10:20:00,26.6,18.2,30.12,East,90,1.3,1.8,70,0.00,,,0.00,WUHU216HW,2013-01-11 18:20:00,
2013-01-11 10:25:00,27.0,18.5,30.12,East,90,1.3,1.8,70,0.00,,,0.00,WUHU216HW,2013-01-11 18:25:00,
2013-01-11 10:30:00,27.4,18.2,30.12,East,90,1.1,1.8,68,0.00,,,0.00,WUHU216HW,2013-01-11 18:30:00,
2013-01-11 10:35:00,27.5,18.7,30.12,East,90,1.8,1.8,69,0.00,,,0.00,WUHU216HW,2013-01-11 18:35:00,
2013-01-11 10:40:00,27.7,18.2,30.12,East,90,1.6,2.0,67,0.00,,,0.00,WUHU216HW,2013-01-11 18:40:00,
2013-01-11 10:45:00,27.9,18.0,30.12,East,90,1.8,2.0,66,0.00,,,0.00,WUHU216HW,2013-01-11 18:45:00,
2013-01-11 10:50:00,27.9,18.0,30.13,NE,45,1.6,1.8,66,0.00,,,0.00,WUHU216HW,2013-01-11 18:50:00,
2013-01-11 10:55:00,28.3,18.4,30.12,North,0,1.1,2.2,66,0.00,,,0.00,WUHU216HW,2013-01-11 18:55:00,
2013-01-11 11:00:00,28.1,17.8,30.12,ENE,68,1.8,2.9,65,0.00,,,0.00,WUHU216HW,2013-01-11 19:00:00,
2013-01-11 11:05:00,27.9,18.4,30.12,North,0,1.1,2.9,67,0.00,,,0.00,WUHU216HW,2013-01-11 19:05:00,
2013-01-11 11:10:00,28.3,17.6,30.12,NNE,23,2.5,4.0,64,0.00,,,0.00,WUHU216HW,2013-01-11 19:10:00,
2013-01-11 11:15:00,28.4,18.2,30.12,NNW,338,2.0,4.0,65,0.00,,,0.00,WUHU216HW,2013-01-11 19:15:00,
2013-01-11 11:20:00,28.8,18.6,30.12,North,0,2.5,3.4,65,0.00,,,0.00,WUHU216HW,2013-01-11 19:20:00,
2013-01-11 11:25:00,29.2,18.8,30.12,North,0,4.0,4.5,65,0.00,,,0.00,WUHU216HW,2013-01-11 19:25:00,
2013-01-11 11:30:00,29.5,19.5,30.12,NNW,338,3.6,4.5,66,0.00,,,0.00,WUHU216HW,2013-01-11 19:30:00,
2013-01-11 11:35:00,29.7,19.7,30.12,NNE,23,3.4,4.5,66,0.00,,,0.00,WUHU216HW,2013-01-11 19:35:00,
2013-01-11 11:40:00,29.7,19.7,30.12,WNW,293,2.2,4.3,66,0.00,,,0.00,WUHU216HW,2013-01-11 19:40:00,
2013-01-11 11:45:00,29.9,19.8,30.12,North,0,2.0,7.8,66,0.00,,,0.00,WUHU216HW,2013-01-11 19:45:00,
2013-01-11 11:50:00,30.6,20.2,30.12,North,0,6.5,7.8,65,0.00,,,0.00,WUHU216HW,2013-01-11 19:50:00,
2013-01-11 11:55:00,30.8,19.3,30.12,North,0,5.6,6.5,62,0.00,,,0.00,WUHU216HW,2013-01-11 19:55:00,
2013-01-11 12:00:00,30.2,18.7,30.13,North,0,4.5,6.5,62,0.00,,,0.00,WUHU216HW,2013-01-11 20:00:00,
2013-01-11 12:05:00,30.2,19.1,30.13,North,0,6.0,6.3,63,0.00,,,0.00,WUHU216HW,2013-01-11 20:05:00,
2013-01-11 12:10:00,30.4,20.3,30.13,North,0,4.0,6.0,66,0.00,,,0.00,WUHU216HW,2013-01-11 20:10:00,
2013-01-11 12:15:00,30.4,19.3,30.13,North,0,3.8,8.9,63,0.00,,,0.00,WUHU216HW,2013-01-11 20:15:00,
2013-01-11 12:20:00,30.6,19.4,30.13,NNW,338,7.2,8.9,63,0.00,,,0.00,WUHU216HW,2013-01-11 20:20:00,
2013-01-11 12:25:00,31.0,19.4,30.12,North,0,5.8,7.2,62,0.00,,,0.00,WUHU216HW,2013-01-11 20:25:00,
2013-01-11 12:30:00,31.1,18.5,30.13,NNE,23,6.3,7.2,59,0.00,,,0.00,WUHU216HW,2013-01-11 20:30:00,
2013-01-11 12:35:00,30.8,19.3,30.13,NNW,338,4.7,6.3,62,0.00,,,0.00,WUHU216HW,2013-01-11 20:35:00,
2013-01-11 12:40:00,30.8,18.5,30.13,NNE,23,6.7,6.7,60,0.00,,,0.00,WUHU216HW,2013-01-11 20:40:00,
2013-01-11 12:45:00,31.3,19.4,30.13,NNW,338,6.9,6.9,61,0.00,,,0.00,WUHU216HW,2013-01-11 20:45:00,
2013-01-11 12:50:00,31.3,19.1,30.12,NNW,338,3.6,7.2,60,0.00,,,0.00,WUHU216HW,2013-01-11 20:50:00,
2013-01-11 12:55:00,31.0,18.7,30.12,NNW,338,2.2,7.2,60,0.00,,,0.00,WUHU216HW,2013-01-11 20:55:00,
2013-01-11 13:00:00,30.2,18.4,30.12,North,0,2.7,5.1,61,0.00,,,0.00,WUHU216HW,2013-01-11 21:00:00,
2013-01-11 13:05:00,30.4,19.3,30.13,NW,315,2.0,6.0,63,0.00,,,0.00,WUHU216HW,2013-01-11 21:05:00,
2013-01-11 13:10:00,31.5,21.4,30.13,NNE,23,7.6,7.8,66,0.00,,,0.00,WUHU216HW,2013-01-11 21:10:00,
2013-01-11 13:15:00,31.5,21.4,30.13,NNE,23,5.4,7.8,66,0.00,,,0.00,WUHU216HW,2013-01-11 21:15:00,
2013-01-11 13:20:00,30.8,20.7,30.14,North,0,5.6,9.2,66,0.00,,,0.00,WUHU216HW,2013-01-11 21:20:00,
2013-01-11 13:25:00,29.5,19.5,30.14,North,0,4.7,12.1,66,0.00,,,0.00,WUHU216HW,2013-01-11 21:25:00,
2013-01-11 13:30:00,29.3,19.4,30.14,North,0,4.3,12.1,66,0.00,,,0.00,WUHU216HW,2013-01-11 21:30:00,
2013-01-11 13:35:00,29.0,19.4,30.14,ENE,68,5.4,6.3,67,0.00,,,0.00,WUHU216HW,2013-01-11 21:35:00,
2013-01-11 13:40:00,28.8,19.3,30.14,NNE,23,3.8,5.4,67,0.00,,,0.00,WUHU216HW,2013-01-11 21:40:00,
2013-01-11 13:45:00,29.9,19.8,30.14,North,0,2.2,5.8,66,0.00,,,0.00,WUHU216HW,2013-01-11 21:45:00,
2013-01-11 13:50:00,30.6,19.1,30.14,North,0,4.3,5.8,62,0.00,,,0.00,WUHU216HW,2013-01-11 21:50:00,
2013-01-11 13:55:00,31.0,18.7,30.14,NNE,23,6.0,6.5,60,0.00,,,0.00,WUHU216HW,2013-01-11 21:55:00,
2013-01-11 14:00:00,31.1,19.3,30.14,ENE,68,5.1,6.9,61,0.00,,,0.00,WUHU216HW,2013-01-11 22:00:00,
2013-01-11 14:05:00,31.3,19.1,30.14,NE,45,5.4,6.9,60,0.00,,,0.00,WUHU216HW,2013-01-11 22:05:00,
2013-01-11 14:10:00,31.7,19.4,30.14,NNE,23,3.4,6.7,60,0.00,,,0.00,WUHU216HW,2013-01-11 22:10:00,
2013-01-11 14:15:00,31.5,19.3,30.15,North,0,4.0,7.6,60,0.00,,,0.00,WUHU216HW,2013-01-11 22:15:00,
2013-01-11 14:20:00,32.0,18.6,30.15,North,0,2.7,7.6,57,0.00,,,0.00,WUHU216HW,2013-01-11 22:20:00,
2013-01-11 14:25:00,32.4,18.4,30.15,North,0,6.3,7.6,56,0.00,,,0.00,WUHU216HW,2013-01-11 22:25:00,
2013-01-11 14:30:00,31.3,19.4,30.15,NNE,23,5.4,8.1,61,0.00,,,0.00,WUHU216HW,2013-01-11 22:30:00,
2013-01-11 14:35:00,30.6,20.5,30.15,NNE,23,5.6,8.1,66,0.00,,,0.00,WUHU216HW,2013-01-11 22:35:00,
2013-01-11 14:40:00,30.6,20.5,30.16,NNE,23,6.7,9.4,66,0.00,,,0.00,WUHU216HW,2013-01-11 22:40:00,
2013-01-11 14:45:00,31.0,20.9,30.16,North,0,6.9,9.4,66,0.00,,,0.00,WUHU216HW,2013-01-11 22:45:00,
2013-01-11 14:50:00,30.8,20.0,30.16,NE,45,6.0,9.4,64,0.00,,,0.00,WUHU216HW,2013-01-11 22:50:00,
2013-01-11 14:55:00,30.1,19.3,30.16,NNE,23,4.0,9.4,64,0.00,,,0.00,WUHU216HW,2013-01-11 22:55:00,
2013-01-11 15:00:00,30.6,19.8,30.16,NNE,23,4.9,7.6,64,0.00,,,0.00,WUHU216HW,2013-01-11 23:00:00,
2013-01-11 15:05:00,32.0,20.2,30.16,NNW,338,4.0,6.9,61,0.00,,,0.00,WUHU216HW,2013-01-11 23:05:00,
2013-01-11 15:10:00,33.8,21.0,30.16,North,0,4.0,6.9,59,0.00,,,0.00,WUHU216HW,2013-01-11 23:10:00,
2013-01-11 15:15:00,35.3,22.4,30.16,North,0,2.5,6.9,59,0.00,,,0.00,WUHU216HW,2013-01-11 23:15:00,
2013-01-11 15:20:00,32.9,20.2,30.16,North,0,6.9,10.3,59,0.00,,,0.00,WUHU216HW,2013-01-11 23:20:00,
2013-01-11 15:25:00,32.4,20.5,30.16,North,0,4.0,10.3,61,0.00,,,0.00,WUHU216HW,2013-01-11 23:25:00,
2013-01-11 15:30:00,31.9,20.3,30.16,NNE,23,5.6,7.8,62,0.00,,,0.00,WUHU216HW,2013-01-11 23:30:00,
2013-01-11 15:35:00,30.6,19.8,30.17,NE,45,3.4,9.2,64,0.00,,,0.00,WUHU216HW,2013-01-11 23:35:00,
2013-01-11 15:40:00,30.4,20.0,30.17,NNE,23,5.8,9.2,65,0.00,,,0.00,WUHU216HW,2013-01-11 23:40:00,
2013-01-11 15:45:00,30.2,19.8,30.17,NNE,23,8.9,8.9,65,0.00,,,0.00,WUHU216HW,2013-01-11 23:45:00,
2013-01-11 15:50:00,29.9,19.8,30.17,NNE,23,3.6,8.9,66,0.00,,,0.00,WUHU216HW,2013-01-11 23:50:00,
2013-01-11 15:55:00,29.9,19.8,30.17,North,0,4.7,8.9,66,0.00,,,0.00,WUHU216HW,2013-01-11 23:55:00,
2013-01-11 16:00:00,29.7,19.7,30.17,NNE,23,6.3,6.3,66,0.00,,,0.00,WUHU216HW,2013-01-12 00:00:00,
2013-01-11 16:05:00,29.5,19.5,30.17,North,0,3.6,6.9,66,0.00,,,0.00,WUHU216HW,2013-01-12 00:05:00,
2013-01-11 16:10:00,29.3,19.4,30.17,NE,45,4.7,6.9,66,0.00,,,0.00,WUHU216HW,2013-01-12 00:10:00,
2013-01-11 16:15:00,29.2,19.2,30.17,NNE,23,4.0,5.8,66,0.00,,,0.00,WUHU216HW,2013-01-12 00:15:00,
2013-01-11 16:20:00,29.0,19.0,30.18,NNE,23,2.0,5.8,66,0.00,,,0.00,WUHU216HW,2013-01-12 00:20:00,
2013-01-11 16:25:00,28.8,18.9,30.18,North,0,2.0,5.4,66,0.00,,,0.00,WUHU216HW,2013-01-12 00:25:00,
2013-01-11 16:30:00,28.8,19.3,30.18,North,0,2.7,5.1,67,0.00,,,0.00,WUHU216HW,2013-01-12 00:30:00,
2013-01-11 16:35:00,28.4,18.9,30.18,NNE,23,4.0,4.0,67,0.00,,,0.00,WUHU216HW,2013-01-12 00:35:00,
2013-01-11 16:40:00,28.3,19.1,30.18,North,0,2.7,4.7,68,0.00,,,0.00,WUHU216HW,2013-01-12 00:40:00,
2013-01-11 16:45:00,27.9,18.7,30.18,NNE,23,2.9,4.7,68,0.00,,,0.00,WUHU216HW,2013-01-12 00:45:00,
2013-01-11 16:50:00,27.7,18.5,30.18,NNW,338,1.1,4.7,68,0.00,,,0.00,WUHU216HW,2013-01-12 00:50:00,
2013-01-11 16:55:00,27.7,18.5,30.18,North,0,1.6,2.9,68,0.00,,,0.00,WUHU216HW,2013-01-12 00:55:00,
2013-01-11 17:00:00,27.4,18.5,30.18,NE,45,1.6,1.8,69,0.00,,,0.00,WUHU216HW,2013-01-12 01:00:00,
2013-01-11 17:05:00,27.0,18.5,30.18,NNE,23,1.8,1.8,70,0.00,,,0.00,WUHU216HW,2013-01-12 01:05:00,
2013-01-11 17:10:00,27.0,18.5,30.18,North,0,2.0,3.4,70,0.00,,,0.00,WUHU216HW,2013-01-12 01:10:00,
2013-01-11 17:15:00,26.8,18.4,30.18,North,0,2.7,3.4,70,0.00,,,0.00,WUHU216HW,2013-01-12 01:15:00,
2013-01-11 17:20:00,26.6,18.5,30.18,NNE,23,1.1,3.4,71,0.00,,,0.00,WUHU216HW,2013-01-12 01:20:00,
2013-01-11 17:25:00,26.5,18.3,30.18,NNE,23,0.2,2.7,71,0.00,,,0.00,WUHU216HW,2013-01-12 01:25:00,
2013-01-11 17:30:00,26.3,18.1,30.18,North,0,2.2,2.2,71,0.00,,,0.00,WUHU216HW,2013-01-12 01:30:00,
2013-01-11 17:35:00,26.3,17.8,30.18,North,0,0.4,2.2,70,0.00,,,0.00,WUHU216HW,2013-01-12 01:35:00,
2013-01-11 17:40:00,25.9,17.7,30.19,North,0,0.7,2.2,71,0.00,,,0.00,WUHU216HW,2013-01-12 01:40:00,
2013-01-11 17:45:00,25.7,17.6,30.19,North,0,0.9,1.8,71,0.00,,,0.00,WUHU216HW,2013-01-12 01:45:00,
2013-01-11 17:50:00,25.4,17.6,30.19,ENE,68,0.4,1.8,72,0.00,,,0.00,WUHU216HW,2013-01-12 01:50:00,
2013-01-11 17:55:00,25.0,17.6,30.19,ENE,68,0.9,1.3,73,0.00,,,0.00,WUHU216HW,2013-01-12 01:55:00,
2013-01-11 18:00:00,24.8,17.6,30.19,ENE,68,0.4,0.9,74,0.00,,,0.00,WUHU216HW,2013-01-12 02:00:00,
2013-01-11 18:05:00,24.5,17.4,30.19,ENE,68,0.4,0.9,74,0.00,,,0.00,WUHU216HW,2013-01-12 02:05:00,
2013-01-11 18:10:00,24.1,17.3,30.19,ENE,68,0.0,0.9,75,0.00,,,0.00,WUHU216HW,2013-01-12 02:10:00,
2013-01-11 18:15:00,24.1,17.3,30.19,ENE,68,0.0,0.9,75,0.00,,,0.00,WUHU216HW,2013-01-12 02:15:00,
2013-01-11 18:20:00,23.9,17.1,30.19,ENE,68,0.0,0.0,75,0.00,,,0.00,WUHU216HW,2013-01-12 02:20:00,
2013-01-11 18:25:00,23.6,17.5,30.19,ENE,68,0.9,0.9,77,0.00,,,0.00,WUHU216HW,2013-01-12 02:25:00,
2013-01-11 18:30:00,23.4,17.3,30.19,ENE,68,0.4,1.1,77,0.00,,,0.00,WUHU216HW,2013-01-12 02:30:00,
2013-01-11 18:35:00,23.4,17.3,30.19,ENE,68,0.7,1.1,77,0.00,,,0.00,WUHU216HW,2013-01-12 02:35:00,
2013-01-11 18:40:00,23.2,17.1,30.19,ENE,68,0.9,0.9,77,0.00,,,0.00,WUHU216HW,2013-01-12 02:40:00,
2013-01-11 18:45:00,23.0,16.9,30.19,ENE,68,0.9,0.9,77,0.00,,,0.00,WUHU216HW,2013-01-12 02:45:00,
2013-01-11 18:50:00,22.9,16.8,30.19,ENE,68,0.4,0.9,77,0.00,,,0.00,WUHU216HW,2013-01-12 02:50:00,
2013-01-11 18:55:00,22.7,16.8,30.19,ENE,68,0.4,0.9,78,0.00,,,0.00,WUHU216HW,2013-01-12 02:55:00,
2013-01-11 19:00:00,22.7,16.8,30.19,ENE,68,0.4,0.9,78,0.00,,,0.00,WUHU216HW,2013-01-12 03:00:00,
2013-01-11 19:05:00,22.7,16.8,30.19,ENE,68,0.0,0.9,78,0.00,,,0.00,WUHU216HW,2013-01-12 03:05:00,
2013-01-11 19:10:00,22.5,17.0,30.19,ENE,68,1.1,1.1,79,0.00,,,0.00,WUHU216HW,2013-01-12 03:10:00,
2013-01-11 19:15:00,22.5,17.0,30.19,ENE,68,0.7,1.3,79,0.00,,,0.00,WUHU216HW,2013-01-12 03:15:00,
2013-01-11 19:20:00,22.5,17.0,30.19,ENE,68,0.0,1.3,79,0.00,,,0.00,WUHU216HW,2013-01-12 03:20:00,
2013-01-11 19:25:00,22.3,17.1,30.19,ENE,68,0.0,1.1,80,0.00,,,0.00,WUHU216HW,2013-01-12 03:25:00,
2013-01-11 19:30:00,22.1,16.7,30.20,ENE,68,1.1,1.1,79,0.00,,,0.00,WUHU216HW,2013-01-12 03:30:00,
2013-01-11 19:35:00,22.1,16.3,30.19,ENE,68,0.4,1.1,78,0.00,,,0.00,WUHU216HW,2013-01-12 03:35:00,
2013-01-11 19:40:00,22.0,16.1,30.20,ENE,68,0.9,1.1,78,0.00,,,0.00,WUHU216HW,2013-01-12 03:40:00,
2013-01-11 19:45:00,22.0,16.1,30.20,ENE,68,0.0,1.1,78,0.00,,,0.00,WUHU216HW,2013-01-12 03:45:00,
2013-01-11 19:50:00,21.8,16.3,30.20,ENE,68,0.0,0.4,79,0.00,,,0.00,WUHU216HW,2013-01-12 03:50:00,
2013-01-11 19:55:00,21.4,16.2,30.20,ENE,68,0.7,0.9,80,0.00,,,0.00,WUHU216HW,2013-01-12 03:55:00,
2013-01-11 20:00:00,21.2,16.6,30.20,ENE,68,1.1,1.1,82,0.00,,,0.00,WUHU216HW,2013-01-12 04:00:00,
2013-01-11 20:05:00,21.1,16.4,30.20,ENE,68,0.2,1.1,82,0.00,,,0.00,WUHU216HW,2013-01-12 04:05:00,
2013-01-11 20:10:00,20.9,16.2,30.20,ENE,68,0.0,1.1,82,0.00,,,0.00,WUHU216HW,2013-01-12 04:10:00,
2013-01-11 20:15:00,20.5,15.8,30.20,ENE,68,0.0,0.4,82,0.00,,,0.00,WUHU216HW,2013-01-12 04:15:00,
2013-01-11 20:20:00,20.5,15.8,30.20,ENE,68,0.0,0.0,82,0.00,,,0.00,WUHU216HW,2013-01-12 04:20:00,
2013-01-11 20:25:00,20.2,15.5,30.20,ENE,68,0.0,0.0,82,0.00,,,0.00,WUHU216HW,2013-01-12 04:25:00,
2013-01-11 20:30:00,20.2,15.5,30.20,ENE,68,0.2,0.4,82,0.00,,,0.00,WUHU216HW,2013-01-12 04:30:00,
2013-01-11 20:35:00,20.2,15.5,30.20,ENE,68,0.4,0.9,82,0.00,,,0.00,WUHU216HW,2013-01-12 04:35:00,
2013-01-11 20:40:00,20.3,15.4,30.20,ENE,68,0.7,0.9,81,0.00,,,0.00,WUHU216HW,2013-01-12 04:40:00,
2013-01-11 20:45:00,20.2,15.2,30.20,ENE,68,0.0,0.7,81,0.00,,,0.00,WUHU216HW,2013-01-12 04:45:00,
2013-01-11 20:50:00,20.2,15.5,30.20,ENE,68,0.4,0.7,82,0.00,,,0.00,WUHU216HW,2013-01-12 04:50:00,
2013-01-11 20:55:00,20.0,15.3,30.20,ENE,68,0.0,0.4,82,0.00,,,0.00,WUHU216HW,2013-01-12 04:55:00,
2013-01-11 21:00:00,20.0,15.3,30.20,ENE,68,0.0,0.4,82,0.00,,,0.00,WUHU216HW,2013-01-12 05:00:00,
2013-01-11 21:05:00,19.8,15.1,30.20,ENE,68,0.0,0.2,82,0.00,,,0.00,WUHU216HW,2013-01-12 05:05:00,
2013-01-11 21:10:00,19.8,15.1,30.20,ENE,68,0.0,0.0,82,0.00,,,0.00,WUHU216HW,2013-01-12 05:10:00,
2013-01-11 21:15:00,19.8,15.1,30.20,ENE,68,0.0,0.0,82,0.00,,,0.00,WUHU216HW,2013-01-12 05:15:00,
2013-01-11 21:20:00,19.6,14.9,30.20,ENE,68,0.0,0.0,82,0.00,,,0.00,WUHU216HW,2013-01-12 05:20:00,
2013-01-11 21:25:00,19.4,14.8,30.20,ENE,68,0.4,0.4,82,0.00,,,0.00,WUHU216HW,2013-01-12 05:25:00,
2013-01-11 21:30:00,19.3,14.6,30.20,ENE,68,0.2,0.4,82,0.00,,,0.00,WUHU216HW,2013-01-12 05:30:00,
2013-01-11 21:35:00,19.1,14.4,30.20,ENE,68,0.4,0.4,82,0.00,,,0.00,WUHU216HW,2013-01-12 05:35:00,
2013-01-11 21:40:00,19.1,14.7,30.20,ENE,68,0.4,0.4,83,0.00,,,0.00,WUHU216HW,2013-01-12 05:40:00,
2013-01-11 21:45:00,18.9,14.5,30.20,ENE,68,0.4,0.4,83,0.00,,,0.00,WUHU216HW,2013-01-12 05:45:00,
2013-01-11 21:50:00,18.9,14.5,30.19,ENE,68,0.4,1.3,83,0.00,,,0.00,WUHU216HW,2013-01-12 05:50:00,
2013-01-11 21:55:00,18.9,14.5,30.19,East,90,1.8,1.8,83,0.00,,,0.00,WUHU216HW,2013-01-12 05:55:00,
2013-01-11 22:00:00,19.1,14.9,30.20,East,90,0.0,1.8,84,0.00,,,0.00,WUHU216HW,2013-01-12 06:00:00,
2013-01-11 22:05:00,18.7,14.3,30.20,East,90,0.0,1.8,83,0.00,,,0.00,WUHU216HW,2013-01-12 06:05:00,
2013-01-11 22:10:00,18.5,13.9,30.20,East,90,0.4,0.9,82,0.00,,,0.00,WUHU216HW,2013-01-12 06:10:00,
2013-01-11 22:15:00,18.4,14.0,30.20,East,90,0.9,0.9,83,0.00,,,0.00,WUHU216HW,2013-01-12 06:15:00,
2013-01-11 22:20:00,17.8,13.4,30.20,East,90,0.4,1.1,83,0.00,,,0.00,WUHU216HW,2013-01-12 06:20:00,
2013-01-11 22:25:00,17.6,13.5,30.19,East,90,0.7,1.1,84,0.00,,,0.00,WUHU216HW,2013-01-12 06:25:00,
2013-01-11 22:30:00,17.5,13.3,30.19,East,90,0.0,1.1,84,0.00,,,0.00,WUHU216HW,2013-01-12 06:30:00,
2013-01-11 22:35:00,17.3,13.1,30.19,East,90,0.2,1.1,84,0.00,,,0.00,WUHU216HW,2013-01-12 06:35:00,
2013-01-11 22:40:00,17.3,13.1,30.19,East,90,0.4,0.9,84,0.00,,,0.00,WUHU216HW,2013-01-12 06:40:00,
2013-01-11 22:45:00,17.5,13.3,30.19,East,90,0.4,0.9,84,0.00,,,0.00,WUHU216HW,2013-01-12 06:45:00,
2013-01-11 22:50:00,17.3,13.1,30.19,East,90,1.1,1.8,84,0.00,,,0.00,WUHU216HW,2013-01-12 06:50:00,
2013-01-11 22:55:00,17.5,13.3,30.19,ENE,68,0.2,1.8,84,0.00,,,0.00,WUHU216HW,2013-01-12 06:55:00,
2013-01-11 23:00:00,17.6,13.5,30.19,ENE,68,0.2,3.1,84,0.00,,,0.00,WUHU216HW,2013-01-12 07:00:00,
2013-01-11 23:05:00,17.6,13.2,30.19,NE,45,1.8,3.1,83,0.00,,,0.00,WUHU216HW,2013-01-12 07:05:00,
2013-01-11 23:10:00,17.6,13.2,30.19,NE,45,0.9,3.1,83,0.00,,,0.00,WUHU216HW,2013-01-12 07:10:00,
2013-01-11 23:15:00,17.6,13.0,30.19,NNE,23,0.0,3.1,82,0.00,,,0.00,WUHU216HW,2013-01-12 07:15:00,
2013-01-11 23:20:00,17.6,13.0,30.19,NNE,23,0.0,0.9,82,0.00,,,0.00,WUHU216HW,2013-01-12 07:20:00,
2013-01-11 23:25:00,17.5,12.8,30.19,NNE,23,0.2,0.9,82,0.00,,,0.00,WUHU216HW,2013-01-12 07:25:00,
2013-01-11 23:30:00,17.6,13.0,30.19,NNE,23,0.4,0.9,82,0.00,,,0.00,WUHU216HW,2013-01-12 07:30:00,
2013-01-11 23:35:00,17.3,12.6,30.19,NE,45,0.0,1.1,82,0.00,,,0.00,WUHU216HW,2013-01-12 07:35:00,
2013-01-11 23:40:00,17.3,12.6,30.19,East,90,2.7,2.7,82,0.00,,,0.00,WUHU216HW,2013-01-12 07:40:00,
2013-01-11 23:45:00,17.1,12.3,30.19,ENE,68,2.5,3.6,81,0.00,,,0.00,WUHU216HW,2013-01-12 07:45:00,
2013-01-11 23:50:00,17.1,12.3,30.19,ENE,68,1.3,3.6,81,0.00,,,0.00,WUHU216HW,2013-01-12 07:50:00,
2013-01-11 23:55:00,16.9,12.1,30.20,NNE,23,0.0,2.5,81,0.00,,,0.00,WUHU216HW,2013-01-12 07:55:00,